Weather History for Skagway, AK

Change the Weather History Date:

Monday, June 17, 2013

  Actual Average Record
Temperature  
Mean Temperature 70 °F -  
Max Temperature 86 °F 61 °F 86 °F (2013)
Min Temperature 59 °F 47 °F 38 °F (1989)
Cooling Degree Days 6    
Growing Degree Days 20 (Base 50)    
Moisture  
Dew Point 42 °F    
Average Humidity 46    
Maximum Humidity 81    
Minimum Humidity 19    
Precipitation  
Precipitation 0.00 in - - ()
Sea Level Pressure  
Sea Level Pressure 29.93 in    
Wind  
Wind Speed 6 mph (NNE)    
Max Wind Speed 26 mph    
Max Gust Speed 33 mph    
Visibility 10 miles    
Events Rain    
Averages and records for this station are not official NWS values.
T = Trace of Precipitation, MM = Missing Value Source: NWS Daily Summary

Daily Weather History Graph

Daily Weather History Graph

Search for Another Location

Airport:

Trip Planner

Search our weather history database for the weather conditions in past years. The results will help you decide how hot, cold, wet, or windy it might be!

Date:

Astronomy

Jun. 17, 2013 Rise Set
Actual Time 3:42 AM AKDT 10:21 PM AKDT
Civil Twilight 2:09 AM AKDT 11:55 PM AKDT
Nautical Twilight Sun does not rise Sun does not rise
Astronomical Twilight Sun does not rise Sun does not rise
Moon 2:47 PM AKDT (6/17) 12:54 AM AKDT (6/17)
Length of Visible Light 21h 46m
Length of Day
18h 39m
First Quarter, 62% of the Moon is Illuminated
Jun 17
First Quarter
Jun 23
Full
Jun 29
Last Quarter
Jul 7
New
Jul 15
First Quarter

Hourly Weather History & Observations

Time (AKDT) Temp. Dew Point Humidity Pressure Visibility Wind Dir Wind Speed Gust Speed Precip Events Conditions
12:53 AM 64.0 °F 50.0 °F 60% 29.99 in 10.0 mi NNE 4.6 mph - N/A   Clear
1:53 AM 62.1 °F 48.9 °F 62% 29.97 in 10.0 mi Calm Calm - N/A   Scattered Clouds
2:53 AM 61.0 °F 48.9 °F 64% 29.97 in 10.0 mi Calm Calm - N/A   Partly Cloudy
3:53 AM 60.1 °F 48.9 °F 67% 30.01 in 10.0 mi Variable 3.5 mph - 0.00 in Rain Light Rain
4:53 AM 59.0 °F 52.0 °F 78% 29.99 in 10.0 mi Calm Calm - 0.00 in   Clear
5:53 AM 59.0 °F 53.1 °F 81% 29.98 in 10.0 mi Calm Calm - N/A   Clear
6:53 AM 60.1 °F 54.0 °F 80% 29.97 in 10.0 mi Variable 3.5 mph - N/A   Clear
7:53 AM 64.9 °F 55.0 °F 70% 29.95 in 10.0 mi Calm Calm - N/A   Partly Cloudy
8:53 AM 66.9 °F 52.0 °F 59% 29.93 in 10.0 mi Calm Calm - N/A   Clear
9:53 AM 59.0 °F 51.1 °F 75% 29.91 in 10.0 mi SW 4.6 mph - N/A   Clear
10:53 AM 62.1 °F 52.0 °F 70% 29.88 in 10.0 mi Calm Calm - N/A   Clear
11:53 AM 64.0 °F 50.0 °F 60% 29.85 in 10.0 mi WSW 5.8 mph - N/A   Clear
12:53 PM 75.0 °F 50.0 °F 41% 29.82 in 10.0 mi Calm Calm - N/A   Partly Cloudy
1:53 PM 82.9 °F 39.0 °F 21% 29.79 in 10.0 mi NE 26.5 mph 33.4 mph N/A   Partly Cloudy
2:01 PM 82.4 °F 37.4 °F 20% 29.79 in 10.0 mi NE 23.0 mph 33.4 mph N/A   Partly Cloudy
2:53 PM 77.0 °F 37.9 °F 24% 29.85 in 10.0 mi Variable 3.5 mph 23.0 mph 0.00 in Rain Light Rain
3:53 PM 78.1 °F 34.0 °F 20% 29.86 in 10.0 mi NNE 18.4 mph 25.3 mph 0.00 in   Mostly Cloudy
4:53 PM 75.9 °F 32.0 °F 20% 29.88 in 10.0 mi NNE 18.4 mph 28.8 mph N/A   Partly Cloudy
5:53 PM 73.0 °F 28.0 °F 19% 29.92 in 10.0 mi NNE 17.3 mph 32.2 mph N/A   Mostly Cloudy
6:53 PM 71.1 °F 30.0 °F 22% 29.95 in 10.0 mi NNE 11.5 mph 24.2 mph N/A   Mostly Cloudy
7:53 PM 70.0 °F 27.0 °F 20% 29.94 in 10.0 mi NNE 11.5 mph - N/A   Partly Cloudy
8:53 PM 66.9 °F 33.1 °F 28% 29.97 in 10.0 mi NNE 16.1 mph - N/A   Clear
9:53 PM 66.0 °F 30.9 °F 27% 29.99 in 10.0 mi NNE 12.7 mph 21.9 mph N/A   Clear
10:53 PM 64.0 °F 30.9 °F 29% 30.01 in 10.0 mi North 8.1 mph - N/A   Clear
11:53 PM 63.0 °F 32.0 °F 31% 30.01 in 10.0 mi North 5.8 mph - N/A   Partly Cloudy